Frederick, MD

10:14 AM EDT on May 23, 2017 (GMT -0400)
Frederick Municipal

Weather History for KFDK - January, 2013

Change the Weather History Date:

Friday, January 25, 2013

  Actual Average (KHGR) Record (KHGR)
Temperature  
Mean Temperature 18 °F -  
Max Temperature 23 °F 34 °F 58 °F (2017)
Min Temperature 12 °F 21 °F 3 °F (2004)
Degree Days  
Heating Degree Days 48    
Moisture  
Dew Point 11 °F    
Average Humidity 77    
Maximum Humidity 100    
Minimum Humidity 50    
Precipitation  
Precipitation 0.00 in - - ()
Sea Level Pressure  
Sea Level Pressure 30.32 in    
Wind  
Wind Speed 3 mph (SSW)    
Max Wind Speed 12 mph    
Max Gust Speed 21 mph    
Visibility 8 miles    
Events Snow    
Averages and records for this station are not official NWS values.
T = Trace of Precipitation, MM = Missing Value Source: NWS Daily Summary

Daily Weather History Graph

Daily Weather History Graph

Search for Another Location

Airport or City:

Trip Planner

Search our weather history database for the weather conditions in past years. The results will help you decide how hot, cold, wet, or windy it might be!

Date:

Astronomy

Jan. 25, 2013 Rise Set
Actual Time 7:22 AM EST 5:21 PM EST
Civil Twilight 6:53 AM EST 5:50 PM EST
Nautical Twilight 6:21 AM EST 6:23 PM EST
Astronomical Twilight 5:49 AM EST 6:55 PM EST
Moon 4:17 PM EST (1/25) 6:00 AM EST (1/25)
Length of Visible Light 10h 57m
Length of Day
9h 59m
Waxing Gibbous, 98% of the Moon is Illuminated
Jan 25
Waxing Gibbous
Jan 26
Full
Feb 3
Last Quarter
Feb 10
New
Feb 17
First Quarter

Hourly Weather History & Observations

Time (EST) Temp. Windchill Dew Point Humidity Pressure Visibility Wind Dir Wind Speed Gust Speed Precip Events Conditions
12:10 AM 17.6 °F 12.3 °F 3.2 °F 53% 30.54 in 10.0 mi WNW 3.5 mph - N/A   Clear
12:35 AM 17.6 °F 8.2 °F 3.2 °F 53% 30.53 in 10.0 mi NW 6.9 mph - N/A   Clear
12:55 AM 17.6 °F - 3.2 °F 53% 30.54 in 10.0 mi Calm Calm - N/A   Clear
1:15 AM 15.8 °F 10.2 °F 3.2 °F 58% 30.53 in 10.0 mi NNW 3.5 mph - N/A   Clear
1:35 AM 14.0 °F 8.2 °F 5.0 °F 67% 30.52 in 10.0 mi WSW 3.5 mph - N/A   Clear
2:00 AM 14.0 °F 6.5 °F 3.2 °F 62% 30.53 in 10.0 mi West 4.6 mph - N/A   Clear
2:20 AM 15.8 °F 10.2 °F 3.2 °F 58% 30.52 in 10.0 mi WSW 3.5 mph - N/A   Clear
2:40 AM 14.0 °F 8.2 °F 5.0 °F 67% 30.52 in 10.0 mi West 3.5 mph - N/A   Clear
3:00 AM 14.0 °F - 5.0 °F 67% 30.52 in 10.0 mi Calm Calm - N/A   Clear
3:25 AM 14.0 °F - 5.0 °F 67% 30.51 in 10.0 mi Calm Calm - N/A   Clear
3:45 AM 12.2 °F 6.1 °F 6.8 °F 79% 30.51 in 10.0 mi SE 3.5 mph - N/A   Clear
4:05 AM 14.0 °F - 8.6 °F 79% 30.50 in 10.0 mi Calm Calm - N/A   Clear
4:25 AM 14.0 °F 8.2 °F 10.4 °F 86% 30.50 in 10.0 mi South 3.5 mph - N/A   Clear
4:50 AM 14.0 °F - 10.4 °F 86% 30.50 in 10.0 mi Calm Calm - N/A   Clear
5:10 AM 15.8 °F - 10.4 °F 79% 30.49 in 10.0 mi Calm Calm - N/A   Clear
5:30 AM 15.8 °F 10.2 °F 10.4 °F 79% 30.49 in 10.0 mi SE 3.5 mph - N/A   Clear
5:50 AM 15.8 °F - 10.4 °F 79% 30.50 in 10.0 mi Calm Calm - N/A   Clear
6:50 AM 15.8 °F - 8.6 °F 73% 30.48 in 10.0 mi Calm Calm - N/A   Clear
7:55 AM 17.6 °F - 10.4 °F 73% 30.47 in 10.0 mi Calm Calm - N/A   Overcast
8:50 AM 19.4 °F 12.8 °F 5.0 °F 54% 30.45 in 10.0 mi WSW 4.6 mph - N/A   Overcast
9:55 AM 19.4 °F 14.3 °F 6.8 °F 58% 30.41 in 10.0 mi Variable 3.5 mph - N/A   Overcast
10:50 AM 21.2 °F 16.4 °F 5.0 °F 50% 30.40 in 10.0 mi Variable 3.5 mph - N/A   Overcast
11:59 AM 21.2 °F 16.4 °F 6.8 °F 54% 30.35 in 10.0 mi Variable 3.5 mph - N/A   Overcast
12:17 PM 21.2 °F 11.7 °F 6.8 °F 54% 30.33 in 2.0 mi SSE 8.1 mph - N/A Snow Snow
12:30 PM 21.2 °F 12.6 °F 10.4 °F 63% 30.31 in 7.0 mi South 6.9 mph 10.4 mph N/A   Overcast
12:55 PM 21.2 °F 16.4 °F 10.4 °F 63% 30.28 in 7.0 mi SSE 3.5 mph - N/A   Overcast
1:45 PM 23.0 °F 15.8 °F 8.6 °F 54% 30.23 in 10.0 mi South 5.8 mph - N/A   Overcast
2:15 PM 23.0 °F 11.7 °F 10.4 °F 59% 30.21 in 1.0 mi SSW 11.5 mph 20.7 mph N/A Snow Light Snow
2:45 PM 19.4 °F 10.4 °F 17.6 °F 93% 30.21 in 1.5 mi SSW 6.9 mph - N/A Snow Snow
3:50 PM 19.4 °F 14.3 °F 17.6 °F 93% 30.19 in 0.5 mi South 3.5 mph - N/A Snow Snow
4:56 PM 19.4 °F 12.8 °F 17.6 °F 93% 30.17 in 0.8 mi South 4.6 mph - N/A Snow Light Snow
5:45 PM 19.4 °F - 17.6 °F 93% 30.14 in 3.0 mi Calm Calm - N/A Snow Light Snow
6:46 PM 15.8 °F - 15.8 °F 100% 30.14 in 5.0 mi Calm Calm - N/A Snow Light Snow
7:46 PM 17.6 °F - 17.6 °F 100% 30.12 in 5.0 mi Calm Calm - N/A Snow Light Snow
8:00 PM 19.4 °F - 17.6 °F 93% 30.12 in 7.0 mi Calm Calm - N/A Snow Light Snow
8:25 PM 19.4 °F - 17.6 °F 93% 30.11 in 10.0 mi Calm Calm - N/A   Overcast
8:45 PM 19.4 °F 14.3 °F 17.6 °F 93% 30.10 in 10.0 mi South 3.5 mph - N/A   Overcast
9:05 PM 19.4 °F - 17.6 °F 93% 30.10 in 10.0 mi Calm Calm - N/A   Overcast
9:25 PM 19.4 °F - 17.6 °F 93% 30.10 in 10.0 mi Calm Calm - N/A   Overcast
9:50 PM 19.4 °F - 17.6 °F 93% 30.10 in 10.0 mi Calm Calm - N/A   Overcast
10:10 PM 19.4 °F - 19.4 °F 100% 30.10 in 10.0 mi Calm Calm - N/A   Overcast
10:30 PM 19.4 °F - 17.6 °F 93% 30.10 in 10.0 mi Calm Calm - N/A   Overcast
10:50 PM 19.4 °F - 17.6 °F 93% 30.10 in 10.0 mi Calm Calm - N/A   Overcast
11:15 PM 19.4 °F - 17.6 °F 93% 30.10 in 10.0 mi Calm Calm - N/A   Overcast
11:35 PM 19.4 °F - 19.4 °F 100% 30.11 in 10.0 mi Calm Calm - N/A   Overcast
11:55 PM 19.4 °F - 19.4 °F 100% 30.11 in 10.0 mi Calm Calm - N/A Snow Light Snow